User: anonymous   Login
Location: Wildlife_Club
(35.6000°N, 81.4330°W)
Time: 22:09:44
(UTC-04:00)
Language:

Cosmos 1782 - Orbit

View from above orbital plane
View from above orbital plane
View from above satellite
View from above satellite

Ground track
Ground track

The orbit data is extracted from the following two-line orbital elements,

1 16986U 86074A   16209.75714673 +.00000143 +00000-0 +77686-5 0  9990
2 16986 082.5052 076.7507 0011870 020.0138 340.1552 15.06167585600838
Epoch (UTC): 27 July 2016 18:10:17
Eccentricity: 0.0011870
inclination: 82.5052°
perigee height: 540 km
apogee height: 556 km
right ascension of ascending node: 76.7507°
argument of perigee: 20.0138°
revolutions per day: 15.06167585
mean anomaly at epoch: 340.1552°
orbit number at epoch: 60083

The dashed part of the orbit path shows where the satellite is in the earth's shadow,  

DLR